[Iaude] MPEC R147: 2023 RF5 [a=1.24,e=0.12,i=14.5,H=23.5]
    mpec at marsden.cfa.harvard.edu 
    mpec at marsden.cfa.harvard.edu
       
    Mon Sep 11 20:22:03 EDT 2023
    
    
  
M.P.E.C. 2023-R147                           Issued 2023 September 12, 00:20 UT
     The Minor Planet Electronic Circulars contain information on unusual
         minor planets, routine data on comets and natural satellites,
         and occasional editorial announcements.  They are published
    on behalf of Division F of the International Astronomical Union by the
          Minor Planet Center, Smithsonian Astrophysical Observatory,
                          Cambridge, MA 02138, U.S.A.
			  
             Prepared using the Tamkin Foundation Computer Network
                              MPC at CFA.HARVARD.EDU
            URL https://www.minorplanetcenter.net/    ISSN 1523-6714
                                    2023 RF5                                    
Observations:
     K23R05F  C2023 09 08.51961223 05 37.504+28 15 05.06         19.89GVER147F51
     K23R05F  C2023 09 08.52042723 05 37.644+28 14 59.20         19.61GVER147F51
     K23R05F* C2023 09 11.32687623 15 03.099+22 26 27.40         19.95wXER147F51
     K23R05F  C2023 09 11.33845423 15 05.029+22 24 57.99         20.34wXER147F51
     K23R05F  C2023 09 11.35003123 15 06.951+22 23 28.36         19.74wXER147F51
     K23R05F  C2023 09 11.36165723 15 08.865+22 21 58.29         19.84wXER147F51
     K23R05F  C2023 09 11.47534323 15 27.234+22 07 06.80         19.77GVER147F52
     K23R05F  C2023 09 11.47597723 15 27.335+22 07 01.57         19.84GVER147F52
     K23R05F KC2023 09 11.81782 23 16 39.47 +21 21 15.5          19.8 GXER147K83
     K23R05F 1C2023 09 11.82009923 16 39.420+21 20 51.90               VER147246
     K23R05F 1C2023 09 11.82033723 16 39.640+21 20 50.10               VER147246
     K23R05F 1C2023 09 11.82057523 16 39.590+21 20 48.60         19.9 GVER147246
     K23R05F 1C2023 09 11.82245523 16 39.850+21 20 33.10               VER147246
     K23R05F 1C2023 09 11.82489823 16 40.330+21 20 14.90               VER147246
     K23R05F KC2023 09 11.82774 23 16 41.24 +21 19 57.8          19.6 GXER147K83
     K23R05F KB2023 09 11.83604 23 16 42.47 +21 18 50.3          19.8 RZER147106
     K23R05F KC2023 09 11.83765 23 16 43.01 +21 18 39.9          19.7 GXER147K83
     K23R05F KB2023 09 11.84076 23 16 43.27 +21 18 13.2          19.4 RZER147106
     K23R05F KB2023 09 11.84547 23 16 44.10 +21 17 36.1          19.4 RZER147106
     K23R05F KB2023 09 11.85018 23 16 44.93 +21 16 58.8          19.5 RZER147106
     K23R05F KC2023 09 11.86248423 16 47.177+21 15 16.52         19.8 GVER147A17
     K23R05F KC2023 09 11.87472923 16 49.349+21 13 39.79         20.1 GVER147A17
     K23R05F KC2023 09 11.88665223 16 51.458+21 12 05.44         19.9 GVER147A17
     K23R05F KC2023 09 11.88869423 16 51.84 +21 11 56.7          19.9 GVER147M60
     K23R05F KC2023 09 11.89722623 16 53.29 +21 10 49.1          19.5 GVER147M60
     K23R05F KC2023 09 11.89726 23 16 52.69 +21 10 43.1          19.5 GXER147G02
     K23R05F KC2023 09 11.90306 23 16 53.72 +21 09 56.9          19.8 GXER147G02
     K23R05F KC2023 09 11.90678823 16 54.91 +21 09 32.9          18.8 GVER147M60
     K23R05F KC2023 09 11.90749 23 16 55.06 +21 09 28.2          19.5 GVER147104
     K23R05F KC2023 09 11.90959 23 16 54.86 +21 09 05.0          19.8 GXER147G02
     K23R05F KC2023 09 11.91976 23 16 57.17 +21 07 50.6                VER147104
     K23R05F KC2023 09 11.92600223 16 57.98 +21 06 59.3          19.6 GXER147595
     K23R05F KC2023 09 11.93062123 16 58.77 +21 06 22.3          19.8 GXER147595
     K23R05F KC2023 09 11.93523523 16 59.59 +21 05 45.5          20.0 GXER147595
     K23R05F KC2023 09 11.94436323 17 01.07 +21 04 33.5          19.7 GVER147L01
     K23R05F KC2023 09 11.94604923 17 01.34 +21 04 20.4          19.8 GVER147L01
     K23R05F KC2023 09 11.94773423 17 01.61 +21 04 06.8          19.7 GVER147L01
     K23R05F KC2023 09 11.94942023 17 01.91 +21 03 53.3          20.0 GVER147L01
Observer details:
104 San Marcello Pistoiese.  Observers P. Bacci, M. Maestripieri.  Measurer P.
    Bacci.  0.60-m f/4.0 reflector + CCD.
106 Crni Vrh.  Observer J. Vales.  0.60-m f/3.3 reflector + CMO.
246 Klet Observatory-KLENOT.  Observers M. Tichy, J. Ticha, M. Janda, M.
    Honkova.  Measurer M. Tichy.  1.06-m f/2.7 Reflector + 2048x2048 CCD.
595 Farra d'Isonzo.  Observer E. Pettarin.  0.61-m f/4.5 reflector + CCD.
A17 Guidestar Observatory, Weinheim.  Observers M. Emmerich, S. Melchert.
    0.36-m f/6.0 Schmidt-Cassegrain + CCD.
F51 Pan-STARRS 1, Haleakala.  Observers J. Bulger, K. Chambers, T. Dukes, T.
    Lowe, P. Minguez, A. Schultz, I. Smith.  Measurers S. Chastel, J.
    Fairlamb, M. Huber, Y. Ramanjooloo, R. Wainscoat, R. Weryk, K. Chambers,
    T. de Boer, J. Bulger, H. Gao, C.-C. Lin, T. Lowe, E. Magnier, P. Minguez,
    A. Schultz, I. Smith.  1.8-m Ritchey-Chretien + CCD.
F52 Pan-STARRS 2, Haleakala.  Observers J. Bulger, K. Chambers, T. Dukes, T.
    Lowe, P. Minguez, A. Schultz, I. Smith.  Measurers S. Chastel, J.
    Fairlamb, M. Huber, Y. Ramanjooloo, R. Wainscoat, R. Weryk.  1.8-m
    Ritchey-Chretien + CCD.
G02 KYSUCE Observatory, Kysucke Nove Mesto.  Observer M. Urbanik.  0.40-m
    f/6.8 Corrected Dall-Kirkham + CCD.
K83 Beppe Forti Astronomical Observatory, Montelupo.  Observers M. Tombelli,
    A. Mazzanti, M. Lombardo, F. Cheli, G. Interrante, A. Squilloni, M. Iozzi.
    Measurers M. Tombelli, F. Bernardi.  0.40-m f/8 Ritchey-Chretien + CCD.
L01 Visnjan Observatory, Tican.  Observer K. Korlevic.  1.0-m f/2.9 reflector
    + CCD.
M60 Virgil Observatory, Loiano.  Observer A. Carbognani.  0.30-m f/4.0
    Reflector + CCD.
Orbital elements:
2023 RF5                                                 Earth MOID = 0.1009 AU
Epoch 2023 Sept. 13.0 TT = JDT 2460200.5                Veres                   
M  16.98634              (2000.0)            P               Q                  
n   0.71068092     Peri.  150.62407     +0.85294086     +0.52192263             
a   1.2436159      Node   177.84449     -0.51433959     +0.84335533             
e   0.1209863      Incl.   14.49801     -0.08914416     +0.12786147             
P   1.39           H   23.58          G   0.15           U   8                  
Residuals in seconds of arc
230908 F51  0.0   0.0     230911 246  0.6+  0.4+    230911 G02  1.0+  0.4-
230908 F51  0.0   0.1-    230911 K83  0.1-  0.4+    230911 M60  0.1-  0.7-
230911 F51  0.1+  0.0     230911 106  0.4+  0.1-    230911 104  0.2-  0.0
230911 F51  0.0   0.0     230911 K83  0.1+  0.3+    230911 G02  1.3+  0.5-
230911 F51  0.0   0.0     230911 106  0.0   0.0     230911 104  0.2+  0.3-
230911 F51  0.0   0.1+    230911 106  0.0   0.1-    230911 595  0.0   0.2+
230911 F52  0.1+  0.2+    230911 106  0.1+  0.3-    230911 595  0.1+  0.1-
230911 F52  0.1+  0.0     230911 A17  0.4-  0.1+    230911 595  0.6+  0.1-
230911 K83  0.1-  0.3+    230911 A17  0.1-  0.1-    230911 L01  0.1-  0.3-
230911 246  0.1-  0.3-    230911 A17  0.2+  0.2-    230911 L01  0.3-  0.1+
230911 246  2.3+  0.2-    230911 M60  0.2+  0.1-    230911 L01  0.5-  0.1-
230911 246  1.1+  0.2+    230911 M60  0.0   0.2-    230911 L01  0.2-  0.1-
230911 246  0.0   0.6-    230911 G02  0.6+  0.3-
Ephemeris:
2023 RF5                 a,e,i = 1.24, 0.12, 14                  q = 1.0932
Date    TT    R. A. (2000) Decl.     Delta      r    Elong.  Phase     V
2023 08 13    21 41 58.0 +53 37 53   0.1838  1.0939   111.4    59.6    22.2
...
2023 08 28    22 26 41.3 +44 57 39   0.1360  1.0941   125.0    49.1    21.3
...
2023 09 05    22 53 45.3 +34 34 49   0.1149  1.0969   138.3    37.7    20.6
...
2023 09 11    23 13 55.1 +23 09 04   0.1044  1.1003   152.0    25.5    20.0
2023 09 12    23 17 11.4 +20 57 50   0.1033  1.1009   154.6    23.1    20.0
2023 09 13    23 20 25.7 +18 42 49   0.1024  1.1016   157.2    20.8    19.9
...
2023 09 19    23 38 57.9 +04 31 14   0.1020  1.1062   173.6     5.8    19.3
...
2023 09 27    00 00 47.4 -12 42 56   0.1146  1.1139   165.7    12.9    19.9
...
2023 10 12    00 31 56.7 -31 03 04   0.1662  1.1322   141.0    33.7    21.4
M. P. C. Staff               (C) Copyright 2023 MPC           M.P.E.C. 2023-R147
    
    
More information about the Iaude
mailing list